Xudat

Azerbaijan     41˚37′47″N   48˚40′48″E
temp.,
°C
wind,
m/s
gust,
m/s
humid.,
%
clouds,
%
prec.,
mm/h
press.,
hPa
HPBL,
m
3 december, thu
thu301:00+10˚e6684100 0.6 1029568
04:00+9˚e6683100 1.0 1029538
07:00+9˚e6684100 0.4 1030518
10:00+9˚ese6683100 0.7 1031543
13:00+9˚ese5682100 0.1 1030541
16:00+9˚ese5582100 0.3 1030575
19:00+9˚ese5681100 0.4 1031616
22:00+9˚ese7781100 0.7 1031653
4 december, fri
fri401:00+9˚ese7882100 0.3 1031669
04:00+9˚ese7881100 0.5 1030707
07:00+8˚ese7884100 0.4 1030644
10:00+9˚ese9982100 0.8 1030727
13:00+8˚ese91082100 0.3 1029679
16:00+8˚ese9984100 0.9 1028594
19:00+8˚ese8987100 0.9 1029562
22:00+8˚e9989100 2.2 1029527
5 december, sat
sat501:00+8˚e91090100 2.2 1028624
04:00+8˚ese101187100 5.1 1028697
07:00+8˚ese91187100 1.4 1028671
10:00+8˚ese91086100 2.4 1028680
13:00+8˚ese91084100 0.8 1027692
16:00+7˚ese8985100 1.6 1027659
19:00+7˚ese7880100 0.7 1028676
22:00+7˚ese7778100 1.3 1028734
6 december, sun
sun601:00+7˚ese6677100 0.3 1028692
04:00+8˚se3460100 0.3 1027996
07:00+8˚e336289 0.0 1028958
10:00+6˚e558195 0.1 1029576
13:00+6˚ese4476100 0.4 1029656
16:00+7˚ese4472100 0.4 1028751
19:00+7˚e5573100 0.1 1030742
22:00+6˚ese5569100 0.1 1031783
7 december, mon
mon701:00+6˚ese446792 0.0 1031847
04:00+6˚ese446685 0.0 1031848
07:00+6˚ese4466100 0.0 1031843
10:00+6˚ese4465100 0.1 1032945
13:00+6˚ese546398 0.1 10311010
16:00+6˚ese667195 0.1 1031887
19:00+6˚ese667298 0.1 1032824
22:00+5˚ese567799 0.1 1033698